| time (UTC) | temp F | wind direction | speed MPH | gust MPH | rain 1hr in | rain 24hr in | rain mn in | humidity % | barometer mb |
| 20260508050026 | 60 | 1 | 3.0 | 4.0 | 0.00 | 0.00 | 0.00 | 89 | 1016.2 |
| 20260508045613 | 60 | 46 | 3.0 | 4.0 | 0.00 | 0.00 | 0.00 | 89 | 1016.2 |
| 20260508045021 | 60 | 51 | 2.0 | 3.0 | 0.00 | 0.00 | 0.00 | 89 | 1016.5 |
| 20260508044528 | 60 | 42 | 2.0 | 3.0 | 0.00 | 0.00 | 0.00 | 89 | 1016.7 |
| 20260508044016 | 60 | 287 | 3.0 | 4.0 | 0.00 | 0.00 | 0.00 | 90 | 1016.6 |
| 20260508043522 | 60 | 321 | 3.0 | 5.0 | 0.00 | 0.00 | 0.00 | 90 | 1016.2 |
| 20260508043029 | 60 | 316 | 4.0 | 5.0 | 0.00 | 0.00 | 0.00 | 91 | 1016.2 |
| 20260508042518 | 60 | 330 | 3.0 | 4.0 | 0.00 | 0.00 | 0.00 | 91 | 1016.1 |
| 20260508042044 | 59 | 345 | 2.0 | 4.0 | 0.00 | 0.00 | 0.00 | 92 | 1016.0 |
| 20260508041530 | 59 | 101 | 2.0 | 3.0 | 0.00 | 0.00 | 0.00 | 92 | 1016.4 |
| 20260508041019 | 59 | 127 | 1.0 | 2.0 | 0.00 | 0.00 | 0.00 | 92 | 1017.1 |
| 20260508040646 | 59 | 264 | 1.0 | 3.0 | 0.00 | 0.00 | 0.00 | 91 | 1017.1 |
| 20260508040052 | 59 | 260 | 2.0 | 3.0 | 0.00 | 0.00 | 0.00 | 91 | 1016.5 |
| 20260508035520 | 59 | 178 | 0.0 | 2.0 | 0.00 | 0.00 | 0.00 | 90 | 1016.5 |
| 20260508035027 | 59 | 105 | 1.0 | 3.0 | 0.00 | 0.00 | 0.00 | 90 | 1016.8 |
| 20260508034536 | 59 | 338 | 0.0 | 2.0 | 0.00 | 0.00 | 0.00 | 90 | 1017.0 |
| 20260508034022 | 60 | 0.0 | 0.0 | 0.00 | 0.00 | 0.00 | 89 | 1017.0 | |
| 20260508033528 | 60 | 0.0 | 0.0 | 0.00 | 0.00 | 0.00 | 89 | 1017.0 | |
| 20260508033017 | 60 | 0.0 | 0.0 | 0.00 | 0.00 | 0.00 | 89 | 1017.0 | |
| 20260508032523 | 60 | 158 | 1.0 | 2.0 | 0.00 | 0.00 | 0.00 | 88 | 1017.3 |
| 20260508032030 | 60 | 0.0 | 0.0 | 0.00 | 0.00 | 0.00 | 88 | 1017.4 | |
| 20260508031539 | 60 | 0.0 | 0.0 | 0.00 | 0.00 | 0.00 | 87 | 1017.2 | |
| 20260508031025 | 60 | 0.0 | 0.0 | 0.00 | 0.00 | 0.00 | 87 | 1016.9 | |
| 20260508030552 | 61 | 219 | 1.0 | 2.0 | 0.00 | 0.00 | 0.00 | 86 | 1016.8 |
| 20260508030020 | 61 | 0.0 | 0.0 | 0.00 | 0.00 | 0.00 | 86 | 1016.0 | |
| 20260508025527 | 61 | 113 | 0.0 | 2.0 | 0.00 | 0.00 | 0.00 | 86 | 1016.0 |
| 20260508025016 | 61 | 14 | 2.0 | 3.0 | 0.00 | 0.00 | 0.00 | 85 | 1015.9 |
| 20260508024542 | 61 | 324 | 1.0 | 3.0 | 0.00 | 0.00 | 0.00 | 85 | 1015.8 |
| 20260508024028 | 61 | 321 | 4.0 | 5.0 | 0.00 | 0.00 | 0.00 | 85 | 1015.8 |
| 20260508023535 | 61 | 3.0 | 3.0 | 0.00 | 0.00 | 0.00 | 85 | 1015.5 | |
| 20260508023032 | 61 | 33 | 3.0 | 4.0 | 0.00 | 0.00 | 0.00 | 84 | 1015.5 |
| 20260508022520 | 61 | 336 | 3.0 | 5.0 | 0.00 | 0.00 | 0.00 | 84 | 1014.9 |
| 20260508022026 | 62 | 11 | 4.0 | 7.0 | 0.00 | 0.00 | 0.00 | 83 | 1014.7 |
| 20260508021532 | 62 | 24 | 5.0 | 9.0 | 0.00 | 0.00 | 0.00 | 83 | 1014.9 |
| 20260508021021 | 62 | 31 | 4.0 | 6.0 | 0.00 | 0.00 | 0.00 | 83 | 1015.0 |
| 20260508020527 | 62 | 28 | 4.0 | 7.0 | 0.00 | 0.00 | 0.00 | 83 | 1015.0 |
| 20260508020034 | 62 | 15 | 3.0 | 5.0 | 0.00 | 0.00 | 0.00 | 82 | 1015.1 |
| 20260508015521 | 62 | 357 | 4.0 | 6.0 | 0.00 | 0.00 | 0.00 | 82 | 1015.1 |
| 20260508015028 | 62 | 21 | 4.0 | 7.0 | 0.00 | 0.00 | 0.00 | 81 | 1015.2 |
| 20260508014516 | 62 | 30 | 4.0 | 6.0 | 0.00 | 0.00 | 0.00 | 81 | 1015.3 |
| 20260508014022 | 62 | 43 | 4.0 | 7.0 | 0.00 | 0.00 | 0.00 | 81 | 1015.2 |
| 20260508013529 | 62 | 336 | 4.0 | 6.0 | 0.00 | 0.00 | 0.00 | 81 | 1015.0 |
| 20260508013017 | 63 | 44 | 4.0 | 6.0 | 0.00 | 0.00 | 0.00 | 80 | 1015.0 |
| 20260508012524 | 63 | 21 | 4.0 | 7.0 | 0.00 | 0.00 | 0.00 | 80 | 1014.8 |
| 20260508012030 | 63 | 61 | 3.0 | 5.0 | 0.00 | 0.00 | 0.00 | 80 | 1014.7 |
| 20260508011518 | 63 | 108 | 4.0 | 6.0 | 0.00 | 0.00 | 0.00 | 80 | 1014.9 |
| 20260508011024 | 63 | 2 | 4.0 | 6.0 | 0.00 | 0.00 | 0.00 | 79 | 1015.0 |
| 20260508010551 | 63 | 59 | 4.0 | 7.0 | 0.00 | 0.00 | 0.00 | 79 | 1015.0 |
| 20260508010019 | 63 | 62 | 4.0 | 5.0 | 0.00 | 0.00 | 0.00 | 78 | 1015.6 |
| 20260508005525 | 63 | 44 | 4.0 | 5.0 | 0.00 | 0.00 | 0.00 | 77 | 1015.6 |
| 20260508005032 | 64 | 16 | 4.0 | 6.0 | 0.00 | 0.00 | 0.00 | 77 | 1015.6 |
| 20260508004520 | 64 | 339 | 5.0 | 7.0 | 0.00 | 0.00 | 0.00 | 77 | 1015.6 |
| 20260508004026 | 64 | 3.0 | 3.0 | 0.00 | 0.00 | 0.00 | 76 | 1015.6 | |
| 20260508003518 | 64 | 350 | 6.0 | 9.0 | 0.00 | 0.00 | 0.00 | 75 | 1015.5 |
| 20260508003025 | 64 | 102 | 4.0 | 6.0 | 0.00 | 0.00 | 0.00 | 75 | 1015.5 |
| 20260508002047 | 64 | 339 | 6.0 | 6.0 | 0.00 | 0.00 | 0.00 | 75 | 1015.8 |
| 20260508001520 | 65 | 348 | 4.0 | 5.0 | 0.00 | 0.00 | 0.00 | 74 | 1016.1 |
| 20260508001027 | 65 | 46 | 5.0 | 6.0 | 0.00 | 0.00 | 0.00 | 73 | 1016.4 |
| 20260508000535 | 65 | 347 | 5.0 | 7.0 | 0.00 | 0.00 | 0.00 | 73 | 1016.4 |
| 20260508000022 | 66 | 341 | 3.0 | 5.0 | 0.00 | 0.00 | 0.00 | 71 | 1016.7 |
| 20260507235528 | 66 | 27 | 4.0 | 5.0 | 0.00 | 0.00 | 0.00 | 70 | 1016.7 |
| 20260507235016 | 66 | 347 | 4.0 | 5.0 | 0.00 | 0.00 | 0.00 | 71 | 1016.7 |
| 20260507234523 | 66 | 1 | 4.0 | 6.0 | 0.00 | 0.00 | 0.00 | 71 | 1016.7 |
| 20260507234029 | 67 | 341 | 3.0 | 5.0 | 0.00 | 0.00 | 0.00 | 71 | 1016.7 |
| 20260507233518 | 67 | 354 | 2.0 | 3.0 | 0.00 | 0.00 | 0.00 | 71 | 1016.7 |
| 20260507233025 | 67 | 10 | 3.0 | 5.0 | 0.00 | 0.00 | 0.00 | 70 | 1016.7 |
| 20260507232530 | 67 | 39 | 2.0 | 4.0 | 0.00 | 0.00 | 0.00 | 70 | 1016.4 |
| 20260507232018 | 67 | 50 | 3.0 | 5.0 | 0.00 | 0.00 | 0.00 | 70 | 1016.4 |
| 20260507231525 | 66 | 13 | 3.0 | 4.0 | 0.00 | 0.00 | 0.00 | 72 | 1016.4 |
| 20260507231032 | 66 | 57 | 4.0 | 5.0 | 0.00 | 0.00 | 0.00 | 73 | 1016.5 |
| 20260507230520 | 66 | 4 | 6.0 | 8.0 | 0.00 | 0.00 | 0.00 | 73 | 1016.5 |
| 20260507230046 | 66 | 359 | 6.0 | 10.0 | 0.00 | 0.00 | 0.00 | 73 | 1016.5 |
| 20260507225533 | 66 | 0 | 5.0 | 7.0 | 0.00 | 0.00 | 0.00 | 72 | 1016.5 |
| 20260507225021 | 66 | 351 | 5.0 | 7.0 | 0.00 | 0.00 | 0.00 | 73 | 1016.6 |
| 20260507224527 | 66 | 355 | 4.0 | 7.0 | 0.00 | 0.00 | 0.00 | 74 | 1016.7 |
| 20260507224016 | 66 | 345 | 6.0 | 9.0 | 0.00 | 0.00 | 0.00 | 73 | 1016.8 |
| 20260507223522 | 66 | 327 | 5.0 | 7.0 | 0.00 | 0.00 | 0.00 | 73 | 1017.0 |
| 20260507223029 | 66 | 334 | 6.0 | 8.0 | 0.00 | 0.00 | 0.00 | 73 | 1017.0 |
| 20260507222517 | 66 | 324 | 6.0 | 7.0 | 0.00 | 0.00 | 0.00 | 74 | 1016.9 |
| 20260507222044 | 66 | 343 | 5.0 | 6.0 | 0.00 | 0.00 | 0.00 | 75 | 1016.8 |
| 20260507221550 | 66 | 11 | 4.0 | 6.0 | 0.00 | 0.00 | 0.00 | 75 | 1017.0 |
| 20260507221018 | 66 | 339 | 6.0 | 8.0 | 0.00 | 0.00 | 0.00 | 75 | 1017.2 |
| 20260507220524 | 66 | 332 | 7.0 | 10.0 | 0.00 | 0.00 | 0.00 | 74 | 1017.2 |
| 20260507220031 | 66 | 303 | 6.0 | 9.0 | 0.00 | 0.00 | 0.00 | 74 | 1017.2 |
| 20260507215519 | 66 | 347 | 6.0 | 7.0 | 0.00 | 0.00 | 0.00 | 72 | 1017.2 |
| 20260507215106 | 66 | 18 | 5.0 | 7.0 | 0.00 | 0.00 | 0.00 | 71 | 1017.4 |
| 20260507214552 | 66 | 353 | 7.0 | 10.0 | 0.00 | 0.00 | 0.00 | 71 | 1017.6 |
| 20260507214020 | 67 | 331 | 6.0 | 8.0 | 0.00 | 0.00 | 0.00 | 72 | 1017.6 |
| 20260507213527 | 67 | 328 | 6.0 | 10.0 | 0.00 | 0.00 | 0.00 | 72 | 1017.6 |
| 20260507213015 | 67 | 311 | 6.0 | 8.0 | 0.00 | 0.00 | 0.00 | 72 | 1017.6 |
| 20260507212522 | 67 | 325 | 6.0 | 7.0 | 0.00 | 0.00 | 0.00 | 73 | 1017.4 |
| 20260507212028 | 66 | 322 | 6.0 | 8.0 | 0.00 | 0.00 | 0.00 | 74 | 1017.3 |
| 20260507211536 | 66 | 330 | 7.0 | 8.0 | 0.00 | 0.00 | 0.00 | 74 | 1017.1 |
| 20260507211023 | 66 | 329 | 7.0 | 8.0 | 0.00 | 0.00 | 0.00 | 74 | 1016.8 |
| 20260507210529 | 65 | 354 | 6.0 | 8.0 | 0.00 | 0.00 | 0.00 | 74 | 1016.8 |
| 20260507210017 | 65 | 58 | 6.0 | 8.0 | 0.00 | 0.00 | 0.00 | 74 | 1017.4 |
| 20260507205524 | 65 | 355 | 6.0 | 7.0 | 0.00 | 0.00 | 0.00 | 75 | 1017.4 |
| 20260507205031 | 65 | 338 | 5.0 | 7.0 | 0.00 | 0.00 | 0.00 | 76 | 1017.6 |
| 20260507204518 | 65 | 358 | 5.0 | 7.0 | 0.00 | 0.00 | 0.00 | 75 | 1017.7 |
| 20260507204025 | 65 | 349 | 5.0 | 8.0 | 0.00 | 0.00 | 0.00 | 75 | 1017.7 |
| 20260507203532 | 65 | 332 | 6.0 | 8.0 | 0.00 | 0.00 | 0.00 | 76 | 1017.7 |
| 20260507203020 | 65 | 335 | 5.0 | 7.0 | 0.00 | 0.00 | 0.00 | 75 | 1017.7 |
| 20260507202526 | 65 | 354 | 3.0 | 6.0 | 0.00 | 0.00 | 0.00 | 75 | 1018.0 |
| 20260507202033 | 65 | 337 | 7.0 | 9.0 | 0.00 | 0.00 | 0.00 | 75 | 1018.0 |
| 20260507201521 | 65 | 325 | 7.0 | 8.0 | 0.00 | 0.00 | 0.00 | 75 | 1018.1 |
| 20260507201027 | 65 | 356 | 6.0 | 8.0 | 0.00 | 0.00 | 0.00 | 75 | 1018.1 |
| 20260507200516 | 65 | 16 | 4.0 | 7.0 | 0.00 | 0.00 | 0.00 | 75 | 1018.1 |
| 20260507200023 | 64 | 324 | 7.0 | 10.0 | 0.00 | 0.00 | 0.00 | 75 | 1018.0 |
| 20260507195528 | 64 | 6 | 6.0 | 7.0 | 0.00 | 0.00 | 0.00 | 75 | 1018.0 |
| 20260507195017 | 64 | 17 | 6.0 | 9.0 | 0.00 | 0.00 | 0.00 | 75 | 1018.3 |
| 20260507194523 | 65 | 355 | 4.0 | 6.0 | 0.00 | 0.00 | 0.00 | 75 | 1018.5 |
| 20260507194030 | 65 | 313 | 4.0 | 5.0 | 0.00 | 0.00 | 0.00 | 76 | 1018.6 |
| 20260507193518 | 64 | 347 | 5.0 | 7.0 | 0.00 | 0.00 | 0.00 | 76 | 1018.7 |
| 20260507193025 | 64 | 2 | 5.0 | 7.0 | 0.00 | 0.00 | 0.00 | 76 | 1018.7 |
| 20260507192551 | 64 | 336 | 6.0 | 8.0 | 0.00 | 0.00 | 0.00 | 76 | 1018.6 |
| 20260507192019 | 64 | 341 | 7.0 | 8.0 | 0.00 | 0.00 | 0.00 | 77 | 1018.5 |
| 20260507191526 | 64 | 353 | 5.0 | 7.0 | 0.00 | 0.00 | 0.00 | 77 | 1018.6 |
| 20260507191032 | 64 | 357 | 6.0 | 7.0 | 0.00 | 0.00 | 0.00 | 78 | 1018.7 |
| 20260507190521 | 63 | 332 | 6.0 | 8.0 | 0.00 | 0.00 | 0.00 | 78 | 1018.7 |
| 20260507190027 | 63 | 331 | 6.0 | 7.0 | 0.00 | 0.00 | 0.00 | 79 | 1018.1 |
| 20260507185515 | 63 | 2 | 6.0 | 8.0 | 0.00 | 0.00 | 0.00 | 80 | 1018.1 |
| 20260507185022 | 63 | 339 | 7.0 | 9.0 | 0.00 | 0.00 | 0.00 | 80 | 1018.4 |
| 20260507184528 | 63 | 13 | 7.0 | 10.0 | 0.00 | 0.00 | 0.00 | 80 | 1018.6 |
| 20260507184016 | 63 | 1 | 6.0 | 8.0 | 0.00 | 0.00 | 0.00 | 79 | 1018.6 |
| 20260507183523 | 63 | 14 | 6.0 | 9.0 | 0.00 | 0.00 | 0.00 | 79 | 1018.4 |
| 20260507183050 | 63 | 338 | 7.0 | 10.0 | 0.00 | 0.00 | 0.00 | 80 | 1018.4 |
| 20260507182517 | 62 | 344 | 8.0 | 11.0 | 0.00 | 0.00 | 0.00 | 80 | 1018.6 |
| 20260507182024 | 62 | 45 | 7.0 | 9.0 | 0.00 | 0.00 | 0.00 | 81 | 1018.6 |
| 20260507181530 | 62 | 10 | 6.0 | 8.0 | 0.00 | 0.00 | 0.00 | 81 | 1018.5 |
| 20260507181039 | 62 | 15 | 7.0 | 9.0 | 0.00 | 0.00 | 0.00 | 81 | 1018.4 |
| 20260507180525 | 62 | 4 | 9.0 | 12.0 | 0.00 | 0.00 | 0.00 | 81 | 1018.4 |
| 20260507180032 | 62 | 355 | 9.0 | 14.0 | 0.00 | 0.00 | 0.00 | 80 | 1019.4 |
| 20260507175520 | 63 | 355 | 8.0 | 12.0 | 0.00 | 0.00 | 0.00 | 80 | 1019.4 |
| 20260507175027 | 64 | 358 | 8.0 | 11.0 | 0.00 | 0.00 | 0.00 | 79 | 1019.2 |
| 20260507174533 | 64 | 351 | 8.0 | 10.0 | 0.00 | 0.00 | 0.00 | 81 | 1019.1 |
| 20260507174021 | 63 | 357 | 7.0 | 11.0 | 0.00 | 0.00 | 0.00 | 81 | 1019.1 |
| 20260507173548 | 64 | 12 | 8.0 | 13.0 | 0.00 | 0.00 | 0.00 | 81 | 1019.1 |
| 20260507173036 | 64 | 14 | 6.0 | 9.0 | 0.00 | 0.00 | 0.00 | 84 | 1019.1 |
| 20260507172523 | 62 | 343 | 8.0 | 11.0 | 0.00 | 0.00 | 0.00 | 86 | 1018.9 |
| 20260507172049 | 61 | 349 | 8.0 | 11.0 | 0.00 | 0.00 | 0.00 | 88 | 1018.9 |
| 20260507171537 | 60 | 345 | 7.0 | 12.0 | 0.00 | 0.00 | 0.00 | 89 | 1018.6 |
| 20260507171024 | 60 | 343 | 7.0 | 11.0 | 0.00 | 0.00 | 0.00 | 90 | 1018.2 |
| 20260507170550 | 60 | 347 | 6.0 | 9.0 | 0.00 | 0.00 | 0.00 | 91 | 1018.2 |
| 20260507170018 | 59 | 32 | 7.0 | 9.0 | 0.00 | 0.00 | 0.00 | 92 | 1018.5 |
| 20260507165625 | 59 | 49 | 6.0 | 8.0 | 0.00 | 0.00 | 0.00 | 93 | 1018.5 |
| 20260507165031 | 59 | 355 | 5.0 | 8.0 | 0.00 | 0.00 | 0.00 | 93 | 1018.8 |
| 20260507164620 | 58 | 341 | 6.0 | 9.0 | 0.00 | 0.00 | 0.00 | 94 | 1018.9 |
| 20260507164046 | 58 | 306 | 7.0 | 8.0 | 0.00 | 0.00 | 0.00 | 94 | 1019.0 |
| 20260507163532 | 58 | 344 | 6.0 | 7.0 | 0.00 | 0.00 | 0.00 | 94 | 1019.5 |
| 20260507163021 | 58 | 335 | 5.0 | 6.0 | 0.00 | 0.00 | 0.00 | 94 | 1019.5 |
| 20260507162527 | 58 | 35 | 5.0 | 8.0 | 0.00 | 0.00 | 0.00 | 92 | 1020.6 |
| 20260507162015 | 58 | 348 | 5.0 | 8.0 | 0.00 | 0.00 | 0.00 | 90 | 1020.9 |
| 20260507161522 | 58 | 332 | 6.0 | 10.0 | 0.00 | 0.01 | 0.00 | 90 | 1020.5 |
| 20260507161028 | 58 | 322 | 6.0 | 7.0 | 0.00 | 0.01 | 0.00 | 90 | 1019.8 |
| 20260507160517 | 58 | 318 | 4.0 | 9.0 | 0.00 | 0.01 | 0.00 | 90 | 1019.8 |
| 20260507160023 | 58 | 45 | 6.0 | 9.0 | 0.00 | 0.01 | 0.00 | 90 | 1019.9 |
| 20260507155530 | 58 | 332 | 8.0 | 12.0 | 0.00 | 0.01 | 0.00 | 91 | 1019.9 |
| 20260507155018 | 58 | 2 | 7.0 | 9.0 | 0.00 | 0.01 | 0.00 | 91 | 1019.7 |
| 20260507154705 | 58 | 345 | 7.0 | 11.0 | 0.00 | 0.01 | 0.00 | 92 | 1019.6 |
| 20260507154031 | 58 | 341 | 8.0 | 11.0 | 0.00 | 0.01 | 0.00 | 93 | 1019.7 |
| 20260507153519 | 58 | 332 | 6.0 | 9.0 | 0.00 | 0.01 | 0.00 | 94 | 1020.2 |
| 20260507153027 | 58 | 331 | 5.0 | 7.0 | 0.00 | 0.01 | 0.00 | 94 | 1020.2 |
| 20260507152532 | 58 | 353 | 5.0 | 7.0 | 0.00 | 0.01 | 0.00 | 94 | 1020.3 |
| 20260507152041 | 58 | 337 | 8.0 | 11.0 | 0.00 | 0.01 | 0.00 | 94 | 1020.3 |
| 20260507151547 | 57 | 7 | 6.0 | 10.0 | 0.00 | 0.01 | 0.00 | 94 | 1020.2 |
| 20260507151034 | 58 | 339 | 7.0 | 10.0 | 0.00 | 0.01 | 0.00 | 94 | 1020.2 |
| 20260507150542 | 58 | 349 | 5.0 | 8.0 | 0.00 | 0.01 | 0.00 | 94 | 1020.1 |
| 20260507150028 | 58 | 348 | 5.0 | 7.0 | 0.00 | 0.01 | 0.00 | 94 | 1019.9 |
| 20260507145536 | 57 | 315 | 5.0 | 7.0 | 0.00 | 0.01 | 0.00 | 95 | 1019.9 |
| 20260507145043 | 57 | 349 | 5.0 | 7.0 | 0.00 | 0.01 | 0.00 | 95 | 1019.9 |
| 20260507144529 | 57 | 347 | 7.0 | 10.0 | 0.00 | 0.01 | 0.00 | 95 | 1019.9 |
| 20260507144018 | 57 | 334 | 8.0 | 13.0 | 0.00 | 0.01 | 0.00 | 96 | 1019.9 |
| 20260507143544 | 57 | 333 | 8.0 | 11.0 | 0.00 | 0.01 | 0.00 | 96 | 1019.8 |
| 20260507143031 | 57 | 322 | 8.0 | 10.0 | 0.00 | 0.01 | 0.00 | 96 | 1019.8 |
| 20260507142519 | 57 | 328 | 8.0 | 12.0 | 0.00 | 0.01 | 0.00 | 97 | 1019.5 |
| 20260507142105 | 57 | 324 | 8.0 | 11.0 | 0.00 | 0.01 | 0.00 | 97 | 1019.5 |
| 20260507141532 | 57 | 345 | 8.0 | 10.0 | 0.00 | 0.01 | 0.00 | 98 | 1019.6 |
| 20260507141020 | 57 | 349 | 9.0 | 12.0 | 0.00 | 0.01 | 0.00 | 98 | 1019.8 |
| 20260507140527 | 57 | 333 | 9.0 | 12.0 | 0.00 | 0.01 | 0.00 | 98 | 1019.8 |
| 20260507140033 | 57 | 345 | 8.0 | 11.0 | 0.00 | 0.01 | 0.00 | 98 | 1019.5 |
| 20260507135521 | 57 | 351 | 11.0 | 14.0 | 0.00 | 0.01 | 0.00 | 98 | 1019.5 |
| 20260507135028 | 57 | 334 | 8.0 | 10.0 | 0.00 | 0.01 | 0.00 | 98 | 1019.2 |
| 20260507134516 | 57 | 349 | 10.0 | 12.0 | 0.00 | 0.01 | 0.00 | 98 | 1019.1 |
| 20260507134023 | 57 | 343 | 8.0 | 12.0 | 0.00 | 0.01 | 0.00 | 98 | 1019.1 |
| 20260507133549 | 56 | 342 | 9.0 | 17.0 | 0.00 | 0.01 | 0.00 | 98 | 1019.1 |
| 20260507133017 | 56 | 350 | 9.0 | 11.0 | 0.00 | 0.01 | 0.00 | 98 | 1019.1 |
| 20260507132524 | 56 | 337 | 12.0 | 15.0 | 0.00 | 0.01 | 0.00 | 98 | 1019.1 |
| 20260507132051 | 56 | 341 | 9.0 | 12.0 | 0.00 | 0.01 | 0.00 | 98 | 1019.1 |
| 20260507131539 | 56 | 345 | 11.0 | 15.0 | 0.00 | 0.01 | 0.00 | 98 | 1019.1 |
| 20260507131045 | 56 | 327 | 9.0 | 12.0 | 0.00 | 0.01 | 0.00 | 98 | 1019.1 |
| 20260507130532 | 56 | 341 | 10.0 | 15.0 | 0.00 | 0.01 | 0.00 | 98 | 1019.1 |
| 20260507130020 | 56 | 348 | 10.0 | 12.0 | 0.00 | 0.01 | 0.00 | 98 | 1018.9 |
| 20260507125547 | 56 | 333 | 12.0 | 16.0 | 0.00 | 0.01 | 0.00 | 98 | 1018.9 |
| 20260507125033 | 56 | 339 | 11.0 | 16.0 | 0.00 | 0.01 | 0.00 | 98 | 1019.0 |
| 20260507124522 | 56 | 335 | 9.0 | 12.0 | 0.00 | 0.01 | 0.00 | 98 | 1019.1 |
| 20260507124028 | 56 | 358 | 9.0 | 12.0 | 0.00 | 0.01 | 0.00 | 98 | 1019.1 |
| 20260507123516 | 56 | 330 | 11.0 | 12.0 | 0.00 | 0.01 | 0.00 | 98 | 1019.1 |
| 20260507123043 | 56 | 318 | 10.0 | 12.0 | 0.00 | 0.01 | 0.00 | 98 | 1019.1 |
| 20260507122529 | 56 | 329 | 8.0 | 12.0 | 0.00 | 0.01 | 0.00 | 98 | 1019.0 |
| 20260507122018 | 56 | 331 | 9.0 | 12.0 | 0.00 | 0.01 | 0.00 | 98 | 1018.9 |
| 20260507121524 | 56 | 323 | 9.0 | 13.0 | 0.00 | 0.01 | 0.00 | 98 | 1018.6 |
| 20260507121031 | 56 | 337 | 11.0 | 17.0 | 0.00 | 0.01 | 0.00 | 97 | 1018.2 |
| 20260507120519 | 56 | 353 | 10.0 | 13.0 | 0.00 | 0.01 | 0.00 | 97 | 1018.2 |
| 20260507120026 | 57 | 336 | 12.0 | 19.0 | 0.00 | 0.01 | 0.00 | 97 | 1018.0 |
| 20260507115532 | 57 | 353 | 10.0 | 13.0 | 0.00 | 0.01 | 0.00 | 97 | 1018.0 |
| 20260507115021 | 57 | 333 | 11.0 | 14.0 | 0.00 | 0.01 | 0.00 | 97 | 1018.2 |
| 20260507114547 | 57 | 335 | 10.0 | 16.0 | 0.00 | 0.01 | 0.00 | 97 | 1018.2 |
| 20260507114015 | 57 | 348 | 11.0 | 13.0 | 0.00 | 0.01 | 0.00 | 96 | 1018.2 |
| 20260507113522 | 57 | 338 | 10.0 | 14.0 | 0.00 | 0.01 | 0.00 | 96 | 1018.2 |
| 20260507113028 | 57 | 330 | 7.0 | 11.0 | 0.00 | 0.01 | 0.00 | 96 | 1018.2 |
| 20260507112517 | 57 | 341 | 10.0 | 13.0 | 0.00 | 0.01 | 0.00 | 96 | 1018.2 |
| 20260507112023 | 57 | 339 | 9.0 | 11.0 | 0.00 | 0.01 | 0.00 | 96 | 1018.2 |
| 20260507111530 | 57 | 340 | 9.0 | 13.0 | 0.00 | 0.01 | 0.00 | 96 | 1018.2 |
| 20260507111038 | 57 | 331 | 12.0 | 15.0 | 0.00 | 0.01 | 0.00 | 96 | 1018.1 |
| 20260507110525 | 57 | 355 | 10.0 | 14.0 | 0.00 | 0.01 | 0.00 | 96 | 1018.1 |
| 20260507110031 | 57 | 338 | 10.0 | 14.0 | 0.00 | 0.01 | 0.00 | 96 | 1018.1 |
| 20260507105519 | 57 | 328 | 9.0 | 14.0 | 0.00 | 0.01 | 0.00 | 96 | 1018.1 |
| 20260507105026 | 57 | 330 | 9.0 | 12.0 | 0.00 | 0.01 | 0.00 | 96 | 1018.2 |
| 20260507104533 | 57 | 347 | 10.0 | 18.0 | 0.00 | 0.01 | 0.00 | 95 | 1018.2 |
| 20260507104021 | 57 | 346 | 11.0 | 15.0 | 0.00 | 0.01 | 0.00 | 95 | 1018.0 |
| 20260507103527 | 57 | 351 | 10.0 | 12.0 | 0.00 | 0.01 | 0.00 | 95 | 1017.4 |
| 20260507103056 | 57 | 341 | 11.0 | 15.0 | 0.00 | 0.01 | 0.00 | 95 | 1017.4 |
| 20260507102522 | 58 | 346 | 10.0 | 16.0 | 0.00 | 0.01 | 0.00 | 95 | 1017.8 |
| 20260507102029 | 58 | 338 | 11.0 | 14.0 | 0.00 | 0.01 | 0.00 | 95 | 1017.8 |
| 20260507101517 | 58 | 339 | 10.0 | 13.0 | 0.00 | 0.01 | 0.00 | 95 | 1017.7 |
| 20260507101024 | 58 | 331 | 8.0 | 14.0 | 0.00 | 0.01 | 0.00 | 95 | 1017.6 |
| 20260507100530 | 58 | 323 | 6.0 | 10.0 | 0.00 | 0.01 | 0.00 | 95 | 1017.6 |
| 20260507100059 | 58 | 8 | 6.0 | 9.0 | 0.00 | 0.01 | 0.00 | 95 | 1017.8 |
| 20260507095525 | 58 | 331 | 6.0 | 10.0 | 0.00 | 0.01 | 0.00 | 95 | 1017.8 |
| 20260507095032 | 58 | 3 | 5.0 | 7.0 | 0.00 | 0.01 | 0.00 | 95 | 1017.8 |
| 20260507094520 | 58 | 352 | 7.0 | 9.0 | 0.00 | 0.01 | 0.00 | 95 | 1017.8 |
| 20260507094026 | 58 | 347 | 6.0 | 8.0 | 0.00 | 0.01 | 0.00 | 95 | 1017.8 |
| 20260507093533 | 58 | 350 | 8.0 | 10.0 | 0.00 | 0.01 | 0.00 | 95 | 1017.4 |
| 20260507093021 | 58 | 321 | 7.0 | 11.0 | 0.00 | 0.01 | 0.00 | 95 | 1017.4 |
| 20260507092527 | 58 | 347 | 6.0 | 10.0 | 0.00 | 0.01 | 0.00 | 95 | 1017.5 |
| 20260507092036 | 58 | 345 | 6.0 | 9.0 | 0.00 | 0.01 | 0.00 | 94 | 1017.6 |
| 20260507091522 | 58 | 350 | 7.0 | 10.0 | 0.00 | 0.01 | 0.00 | 94 | 1017.2 |
| 20260507091029 | 58 | 336 | 8.0 | 10.0 | 0.00 | 0.01 | 0.00 | 94 | 1016.8 |
| 20260507090517 | 58 | 355 | 6.0 | 12.0 | 0.00 | 0.01 | 0.00 | 94 | 1016.8 |
| 20260507090024 | 58 | 352 | 7.0 | 9.0 | 0.00 | 0.01 | 0.00 | 94 | 1016.8 |
| 20260507085530 | 58 | 357 | 7.0 | 9.0 | 0.00 | 0.01 | 0.00 | 94 | 1016.8 |
| 20260507085018 | 58 | 341 | 7.0 | 9.0 | 0.00 | 0.01 | 0.00 | 94 | 1016.9 |
| 20260507084545 | 58 | 315 | 5.0 | 9.0 | 0.00 | 0.01 | 0.00 | 94 | 1017.0 |
| 20260507084032 | 58 | 336 | 5.0 | 8.0 | 0.00 | 0.01 | 0.00 | 94 | 1017.0 |
| 20260507083520 | 58 | 349 | 6.0 | 9.0 | 0.00 | 0.01 | 0.00 | 93 | 1016.8 |
| 20260507083026 | 58 | 348 | 6.0 | 7.0 | 0.00 | 0.01 | 0.00 | 93 | 1016.8 |
| 20260507082533 | 58 | 348 | 6.0 | 9.0 | 0.00 | 0.01 | 0.00 | 93 | 1016.8 |
| 20260507082021 | 58 | 320 | 3.0 | 5.0 | 0.00 | 0.01 | 0.00 | 93 | 1016.8 |
| 20260507081527 | 59 | 356 | 4.0 | 6.0 | 0.00 | 0.01 | 0.00 | 93 | 1016.8 |
| 20260507081036 | 59 | 5 | 6.0 | 8.0 | 0.00 | 0.01 | 0.00 | 93 | 1016.8 |
| 20260507080522 | 59 | 329 | 5.0 | 7.0 | 0.00 | 0.01 | 0.00 | 93 | 1016.8 |
| 20260507080029 | 59 | 340 | 2.0 | 5.0 | 0.00 | 0.01 | 0.00 | 93 | 1016.0 |
| 20260507075517 | 59 | 357 | 4.0 | 6.0 | 0.00 | 0.01 | 0.00 | 92 | 1016.0 |
| 20260507075024 | 59 | 359 | 6.0 | 8.0 | 0.00 | 0.01 | 0.00 | 92 | 1016.5 |
| 20260507074530 | 59 | 6 | 4.0 | 6.0 | 0.00 | 0.01 | 0.00 | 92 | 1016.8 |
| 20260507074018 | 59 | 15 | 4.0 | 6.0 | 0.00 | 0.01 | 0.00 | 92 | 1016.6 |
| 20260507073525 | 59 | 24 | 3.0 | 4.0 | 0.00 | 0.01 | 0.00 | 92 | 1015.8 |
| 20260507073031 | 59 | 14 | 5.0 | 7.0 | 0.00 | 0.01 | 0.00 | 92 | 1015.8 |
| 20260507072520 | 59 | 20 | 5.0 | 7.0 | 0.00 | 0.01 | 0.00 | 92 | 1016.1 |
| 20260507072026 | 59 | 341 | 6.0 | 10.0 | 0.00 | 0.01 | 0.00 | 91 | 1016.2 |
| 20260507071533 | 59 | 4 | 6.0 | 7.0 | 0.00 | 0.01 | 0.00 | 91 | 1016.2 |
| 20260507071021 | 59 | 41 | 6.0 | 8.0 | 0.00 | 0.01 | 0.00 | 91 | 1016.3 |
| 20260507070548 | 59 | 1 | 5.0 | 7.0 | 0.00 | 0.01 | 0.00 | 91 | 1016.3 |
| 20260507070016 | 59 | 345 | 5.0 | 6.0 | 0.00 | 0.01 | 0.00 | 91 | 1016.4 |
| 20260507065522 | 59 | 347 | 6.0 | 10.0 | 0.00 | 0.01 | 0.00 | 91 | 1016.4 |
| 20260507065049 | 59 | 2 | 6.0 | 9.0 | 0.00 | 0.01 | 0.00 | 91 | 1016.1 |
| 20260507064517 | 59 | 351 | 5.0 | 7.0 | 0.00 | 0.01 | 0.00 | 90 | 1015.8 |
| 20260507064024 | 59 | 3 | 6.0 | 9.0 | 0.00 | 0.01 | 0.00 | 90 | 1015.9 |
| 20260507063530 | 59 | 27 | 6.0 | 9.0 | 0.00 | 0.01 | 0.00 | 90 | 1016.4 |
| 20260507063019 | 59 | 35 | 7.0 | 9.0 | 0.00 | 0.01 | 0.00 | 90 | 1016.4 |
| 20260507062525 | 59 | 14 | 7.0 | 10.0 | 0.00 | 0.01 | 0.00 | 90 | 1016.2 |
| 20260507062052 | 60 | 351 | 7.0 | 12.0 | 0.00 | 0.01 | 0.00 | 90 | 1016.2 |
| 20260507061520 | 60 | 14 | 7.0 | 10.0 | 0.00 | 0.01 | 0.00 | 90 | 1016.3 |
| 20260507061027 | 60 | 20 | 7.0 | 9.0 | 0.00 | 0.01 | 0.00 | 90 | 1016.5 |
| 20260507060533 | 60 | 348 | 6.0 | 10.0 | 0.00 | 0.01 | 0.00 | 90 | 1016.5 |
| 20260507060021 | 60 | 350 | 6.0 | 8.0 | 0.00 | 0.01 | 0.00 | 90 | 1016.4 |
| 20260507055528 | 60 | 342 | 6.0 | 8.0 | 0.00 | 0.01 | 0.00 | 90 | 1016.4 |
| 20260507055016 | 60 | 327 | 6.0 | 8.0 | 0.00 | 0.01 | 0.00 | 90 | 1016.1 |
| 20260507054523 | 60 | 345 | 6.0 | 8.0 | 0.00 | 0.01 | 0.00 | 90 | 1016.0 |
| 20260507054049 | 60 | 323 | 7.0 | 11.0 | 0.00 | 0.01 | 0.00 | 90 | 1016.0 |
| 20260507053518 | 60 | 335 | 6.0 | 8.0 | 0.00 | 0.01 | 0.00 | 90 | 1016.0 |
| 20260507053024 | 60 | 355 | 7.0 | 13.0 | 0.00 | 0.01 | 0.00 | 90 | 1016.0 |
| 20260507052551 | 60 | 1 | 8.0 | 12.0 | 0.00 | 0.01 | 0.00 | 90 | 1016.2 |
| 20260507052039 | 60 | 343 | 7.0 | 9.0 | 0.00 | 0.01 | 0.00 | 90 | 1016.3 |
| 20260507051546 | 60 | 350 | 7.0 | 9.0 | 0.00 | 0.01 | 0.00 | 90 | 1016.2 |
| 20260507051112 | 60 | 347 | 7.0 | 10.0 | 0.00 | 0.01 | 0.00 | 90 | 1016.0 |
| 20260507050520 | 60 | 4 | 7.0 | 10.0 | 0.00 | 0.01 | 0.00 | 90 | 1016.0 |